Other Surface Observations
Issued by NWS

Home | Current Version | Previous Version | Text Only | Print | Product List | Glossary On
Versions: 1 2 3 4 5 6 7 8 9 10 11 12 13 14 15 16 17 18 19 20 21 22 23 24 25 26 27 28 29 30 31 32 33 34 35 36 37 38 39 40 41 42 43 44 45 46 47 48 49 50
000
SXUS52 KTAE 012206
OSOTAE
OSOTAE
North Florida/South Alabama/Southwest Georgia Weather Roundup
National Weather Service Tallahassee Florida
600 PM EDT SUN MAY 01 2016

Note: "fair" indicates few or no clouds below 12,000 feet with no
significant weather and/or obstructions to visibility.

!FLZ017-115-028-034-025-012300
...North Florida...

CITY           SKY/WX    TMP DP  RH WIND       PRES   REMARKS
TALLAHASSEE    PTSUNNY   85  63  47 S9        30.00R
APALACHICOLA   MOSUNNY   79  72  79 SE9       30.01R
PERRY            N/A     83  66  54 SW10      30.00
CROSS CITY       N/A     86  65  49 W9        29.98S
JACKSONVILLE   MOSUNNY   85  62  46 E13       29.98S
$$

!FLZ112-006-005-002-011-012300
...Florida Panhandle...

CITY           SKY/WX    TMP DP  RH WIND       PRES   REMARKS
MARIANNA       PTSUNNY   86  65  49 S8        29.96S
BONIFAY        NOT AVBL
PANAMA CITY NW FAIR      80  70  71 S14       29.99S
TYNDALL AFB    MOSUNNY   80  71  74 S10       30.00S
TYND DRONE APT FAIR      80  73  79 S13       30.00S
DE FUNIAK SPR    N/A     80  68  67 SW7       30.00S
EGLIN AFB      PTSUNNY   80  72  76 S10       29.99F
DESTIN         CLOUDY    80  74  81 SE9       29.99F
HURLBURT       PTSUNNY   78  70  77 SE10      29.99F
CRESTVIEW      CLOUDY    82  69  64 S10       30.00F
PENSACOLA      CLOUDY    79  73  82 S8        30.00S
$$

!ALZ063-066-012300
...South Alabama...

CITY           SKY/WX    TMP DP  RH WIND       PRES   REMARKS
DOTHAN         PTSUNNY   86  64  47 SW7       30.01S
OZARK CAIRNS   CLOUDY    85  68  57 SW7       29.98S
FT RUCKER HELI NOT AVBL
RUCKER HELI 3  FAIR      83  66  56 SW8       30.00S
RUCKER HELI 2  NOT AVBL
FLORALA APT    CLOUDY    82  66  58 SW10      30.00S
ANDALUSIA      NOT AVBL
TROY           CLOUDY    82  68  62 SW5       29.99R
EUFALA         FAIR      86  65  49 SW3       29.96S
MOBILE         LGT RAIN  75  75 100 SE14      29.95F
$$

!GAZ120>161-012300
...Southwest and South Central Georgia...

CITY           SKY/WX    TMP DP  RH WIND       PRES   REMARKS
THOMASVILLE    FAIR      84  64  51 SW5       30.00S
BAINBRIDGE     PTSUNNY   84  64  51 S9        29.98S
MOODY AFB      MOSUNNY   88  62  41 S8        29.97S
VALDOSTA       MOSUNNY   86  66  51 S3        29.98R
MOULTRIE       CLOUDY    86  63  45 SW12      29.99S
BLAKELY        PTSUNNY   88  68  51 CALM      29.98R HX  91
ALBANY         MOSUNNY   86  64  47 SW10      29.99R
TIFTON         FAIR      86  63  46 SW7       29.98S
FITZGERALD     CLOUDY    83  69  63 CALM      30.00F
CORDELE        MOCLDY    89  67  47 S6        29.98S HX  92
AMERICUS       FAIR      86  59  39 SW5       29.99S
HOMERVILLE     FAIR      88  64  45 S6        29.98S
$$

!GMZ750-755-770-775-012300
...Coastal and Buoy Obs...

STATION/POSITION TIME  TEMP    WIND        PRES    VSBY  WAVE
                       AIR SEA DIR/SP/G                  HT/PER
                 (UTC) (F)     (DEG/KT/KT) (MB)    (MI)  (FT/S)
KEATON BEACH     2200   78     230/  9/ 10 1015.6F
CEDAR KEY        2100   81     260/  6/ 10 1015.7F
C TOWER          2200   75     140/  6/  6 1016.7R
APALACHICOLA BUO 2150   76 75  140/  8/ 10 1015.1F         4/ 6
PANAMA CITY BUOY 2050   79 79  160/ 10/ 12 1015.1          5/ 7
MOBILE BUOY      2100   77 76   80/  6/  6 1014.6F
ORANGE BCH AL BU 2150   76 76   50/  4/  6 1015.1F         4/ 7
$$




USA.gov is the U.S. government's official web portal to all federal, state and local government web resources and services.